This is the latest recevied weather packets stored in our database for station/object WX4SGA. If no packets are shown the sender has not sent any weather packets the latest 10 day(s).
| Time | Temp. | Humidity | Pressure | Rain* | Wind** | Luminosity | Snow |
|---|---|---|---|---|---|---|---|
| 1777811592 | 12.78° C | 79% | 1020.7 hPa | 0 mm | - | 93 W/m² | - |
| 1777811287 | 12.78° C | 78% | 1020.7 hPa | 0 mm | - | 84 W/m² | - |
| 1777810985 | 12.78° C | 78% | 1020.7 hPa | 0 mm | - | 74 W/m² | - |
| 1777810682 | 12.78° C | 78% | 1020.3 hPa | 0 mm | - | 66 W/m² | - |
| 1777810378 | 12.22° C | 79% | 1020.3 hPa | 0 mm | - | 61 W/m² | - |
| 1777810074 | 11.67° C | 82% | 1020.3 hPa | 0 mm | - | 54 W/m² | - |
| 1777809772 | 11.11° C | 87% | 1020 hPa | 0 mm | - | 48 W/m² | - |
| 1777809469 | 10.56° C | 96% | 1020 hPa | 0 mm | - | 49 W/m² | - |
| 1777809167 | 10° C | 99% | 1020 hPa | 0 mm | - | 46 W/m² | - |
| 1777808865 | 8.89° C | 99% | 1020 hPa | 0 mm | - | 41 W/m² | - |
| 1777808561 | 8.33° C | 99% | 1020 hPa | 0 mm | - | 37 W/m² | - |
| 1777808258 | 8.33° C | 99% | 1019.6 hPa | 0 mm | - | 32 W/m² | - |
| 1777807957 | 7.78° C | 99% | 1019.6 hPa | 0 mm | - | 21 W/m² | - |
| 1777807654 | 8.33° C | 99% | 1019.6 hPa | 0 mm | - | 19 W/m² | - |
| 1777807352 | 8.33° C | 99% | 1019.6 hPa | 0 mm | - | 17 W/m² | - |
| 1777807047 | 7.78° C | 99% | 1019.6 hPa | 0 mm | - | 17 W/m² | - |
| 1777806745 | 7.22° C | 99% | 1019.6 hPa | 0 mm | - | 12 W/m² | - |
| 1777806440 | 7.22° C | 99% | 1019.6 hPa | 0 mm | - | 10 W/m² | - |
| 1777806137 | 7.22° C | 99% | 1019.6 hPa | 0 mm | - | 8 W/m² | - |
| 1777805834 | 7.22° C | 99% | 1019.3 hPa | 0 mm | - | 6 W/m² | - |
| 1777805531 | 7.22° C | 99% | 1019.3 hPa | 0 mm | - | 4 W/m² | - |
| 1777805229 | 7.22° C | 99% | 1019 hPa | 0 mm | - | 2 W/m² | - |
| 1777804926 | 7.22° C | 99% | 1019 hPa | 0 mm | - | 1 W/m² | - |
| 1777804624 | 7.22° C | 99% | 1019 hPa | 0 mm | - | 0 W/m² | - |
| 1777804322 | 7.22° C | 99% | 1019 hPa | 0 mm | - | 0 W/m² | - |
* Rain latest hour (hover to see other rain measurements)
** Current wind speed in m/s (hover to see current wind gust speed)